URWWURWA

Guest
Details From URWW - Gumrak
To URWA - Astrakhan
Flight Number -
Tags Generated
Created
Modified
Stats Distance 211 nm / 390 km
Max Altitude 0 ft / 0 m
Waypoints 2
Social Downloads 1
Likes 0
Share VATSIM

Download

Looking for another format? Having issues loading an existing format? Contact us
Advertisement - Login to hide

Notes

Generated

Route

URWW URWA

ID Type Via Altitude Latitude Longitude Leg Dist Tot Dist Heading (true) Name
O URWW APT - 0 ft / 0 m 48.78224˚ 44.35218˚ - 0 nm - GUMRAK
O URWA APT - 0 ft / 0 m 46.28171˚ 47.99744˚ 210 nm 210 nm 134° / 137° -

Altitude Profile

Advertisement - Login to hide

Weather


0- 5 10 15 20 25 30 35+ Temperature / ° C

Clouds and Precipitation
Forecast for 2018-05-23 18:00 UTC. Updated 5 hours ago

Ground ~20,000 ft ~40,000 ft Winds

URWW

Details ICAO URWW (VOG)
Name GUMRAK
Region Russia
Timezone Europe/Volgograd (UTC+3.0)
Stats Elevation 482 ft / 147 m (AMSL)
Location 48.780630° 44.352696°
Runways 3
Magnetic Variation 9.218° E

METAR

URWW 232230Z 14006MPS CAVOK 23/11 Q1017 R06/010070 NOSIG

Decode

TAF

Not found

Departure Runways

ID Width Length Bearing (true) Bearing (mag) Surface Threshold Offset Overrun Length
08 350 ft / 107 m 1,563 ft / 476 m 84.16° 74.94° Grass 0 ft / 0 m 0 ft / 0 m
11 161 ft / 49 m 8,180 ft / 2,493 m 120.19° 110.97° Asphalt 0 ft / 0 m 150 ft / 46 m
11R 330 ft / 101 m 5,508 ft / 1,679 m 120.08° 110.86° Grass 0 ft / 0 m 0 ft / 0 m
26 350 ft / 107 m 1,563 ft / 476 m 264.16° 254.94° Grass 0 ft / 0 m 0 ft / 0 m
29 161 ft / 49 m 8,180 ft / 2,493 m 300.22° 291.00° Asphalt 0 ft / 0 m 130 ft / 40 m
29L 330 ft / 101 m 5,508 ft / 1,679 m 300.09° 290.87° Grass 0 ft / 0 m 0 ft / 0 m

URWA

Details ICAO URWA (ASF)
Name ASTRAKHAN
Region Russia
Timezone Europe/Volgograd (UTC+3.0)
Stats Elevation -65 ft / -20 m (AMSL)
Location 46.280732° 48.006186°
Runways 2
Magnetic Variation 8.427° E

METAR

URWA 232230Z 08006MPS CAVOK 23/15 Q1017 R09/010070 NOSIG RMK QFE765/1020

Decode

TAF

Not found

Destination Runways

ID Width Length Bearing (true) Bearing (mag) Surface Threshold Offset Overrun Length
09 138 ft / 42 m 8,181 ft / 2,494 m 96.01° 87.58° Concrete 0 ft / 0 m 165 ft / 50 m
11 330 ft / 101 m 5,083 ft / 1,549 m 120.87° 112.44° Grass 0 ft / 0 m 0 ft / 0 m
27 138 ft / 42 m 8,181 ft / 2,494 m 276.03° 267.60° Concrete 0 ft / 0 m 165 ft / 50 m
29 330 ft / 101 m 5,083 ft / 1,549 m 300.88° 292.45° Grass 0 ft / 0 m 0 ft / 0 m

Popular Alternatives